| time (UTC) | temp F | wind direction | speed MPH | gust MPH | rain 1hr in | rain 24hr in | rain mn in | humidity % | barometer mb |
| 20260510173844 | 68 | 103 | 0.0 | 1.0 | 0.00 | 0.00 | 0.00 | 54 | 1008.0 |
| 20260510173326 | 68 | 103 | 0.0 | 1.0 | 0.00 | 0.00 | 0.00 | 54 | 1008.0 |
| 20260510172828 | 68 | 103 | 0.0 | 1.0 | 0.00 | 0.00 | 0.00 | 53 | 1008.1 |
| 20260510172328 | 69 | 103 | 0.0 | 1.0 | 0.00 | 0.00 | 0.00 | 53 | 1008.2 |
| 20260510171829 | 69 | 103 | 0.0 | 1.0 | 0.00 | 0.00 | 0.00 | 53 | 1008.2 |
| 20260510171331 | 69 | 103 | 0.0 | 1.0 | 0.00 | 0.00 | 0.00 | 53 | 1008.2 |
| 20260510170814 | 69 | 103 | 0.0 | 1.0 | 0.00 | 0.00 | 0.00 | 52 | 1008.3 |
| 20260510170316 | 70 | 103 | 0.0 | 1.0 | 0.00 | 0.00 | 0.00 | 51 | 1008.3 |
| 20260510165818 | 70 | 103 | 0.0 | 1.0 | 0.00 | 0.00 | 0.00 | 51 | 1008.4 |
| 20260510165320 | 70 | 103 | 0.0 | 1.0 | 0.00 | 0.00 | 0.00 | 50 | 1008.5 |
| 20260510164823 | 70 | 103 | 0.0 | 1.0 | 0.00 | 0.00 | 0.00 | 50 | 1008.5 |
| 20260510164326 | 70 | 103 | 0.0 | 1.0 | 0.00 | 0.00 | 0.00 | 52 | 1008.6 |
| 20260510163849 | 70 | 103 | 0.0 | 1.0 | 0.00 | 0.00 | 0.00 | 51 | 1008.7 |
| 20260510163332 | 70 | 103 | 0.0 | 1.0 | 0.00 | 0.00 | 0.00 | 51 | 1008.7 |
| 20260510162814 | 70 | 48 | 0.0 | 2.0 | 0.00 | 0.00 | 0.00 | 52 | 1008.8 |
| 20260510162344 | 69 | 47 | 0.0 | 2.0 | 0.00 | 0.00 | 0.00 | 51 | 1008.9 |
| 20260510161828 | 69 | 47 | 1.0 | 2.0 | 0.00 | 0.00 | 0.00 | 50 | 1008.9 |
| 20260510161330 | 69 | 47 | 0.0 | 2.0 | 0.00 | 0.00 | 0.00 | 51 | 1008.9 |
| 20260510160831 | 69 | 47 | 1.0 | 3.0 | 0.00 | 0.00 | 0.00 | 50 | 1009.0 |
| 20260510160333 | 69 | 29 | 1.0 | 3.0 | 0.00 | 0.00 | 0.00 | 50 | 1009.1 |
| 20260510155854 | 69 | 34 | 2.0 | 2.0 | 0.00 | 0.00 | 0.00 | 50 | 1009.1 |
| 20260510155352 | 69 | 53 | 1.0 | 3.0 | 0.00 | 0.00 | 0.00 | 50 | 1009.1 |
| 20260510154813 | 69 | 55 | 1.0 | 3.0 | 0.00 | 0.00 | 0.00 | 50 | 1009.3 |
| 20260510154312 | 69 | 26 | 1.0 | 3.0 | 0.00 | 0.00 | 0.00 | 50 | 1009.4 |
| 20260510153814 | 70 | 58 | 1.0 | 2.0 | 0.00 | 0.00 | 0.00 | 49 | 1009.4 |
| 20260510153314 | 70 | 58 | 1.0 | 3.0 | 0.00 | 0.00 | 0.00 | 50 | 1009.4 |
| 20260510152814 | 69 | 58 | 1.0 | 4.0 | 0.00 | 0.00 | 0.00 | 50 | 1009.5 |
| 20260510152334 | 69 | 49 | 1.0 | 4.0 | 0.00 | 0.00 | 0.00 | 51 | 1009.5 |
| 20260510151814 | 69 | 52 | 2.0 | 4.0 | 0.00 | 0.00 | 0.00 | 50 | 1009.6 |
| 20260510151334 | 70 | 58 | 3.0 | 4.0 | 0.00 | 0.00 | 0.00 | 50 | 1009.6 |
| 20260510150816 | 70 | 52 | 2.0 | 3.0 | 0.00 | 0.00 | 0.00 | 49 | 1009.7 |
| 20260510150319 | 69 | 50 | 1.0 | 4.0 | 0.00 | 0.00 | 0.00 | 50 | 1009.7 |
| 20260510145819 | 69 | 65 | 2.0 | 4.0 | 0.00 | 0.00 | 0.00 | 51 | 1009.8 |
| 20260510145321 | 69 | 53 | 1.0 | 4.0 | 0.00 | 0.00 | 0.00 | 50 | 1009.8 |
| 20260510144823 | 69 | 13 | 1.0 | 3.0 | 0.00 | 0.00 | 0.00 | 52 | 1009.9 |
| 20260510144326 | 69 | 18 | 1.0 | 4.0 | 0.00 | 0.00 | 0.00 | 51 | 1009.9 |
| 20260510143826 | 68 | 58 | 3.0 | 5.0 | 0.00 | 0.00 | 0.00 | 51 | 1009.9 |
| 20260510143326 | 69 | 60 | 3.0 | 5.0 | 0.00 | 0.00 | 0.00 | 51 | 1010.0 |
| 20260510142825 | 69 | 38 | 4.0 | 5.0 | 0.00 | 0.00 | 0.00 | 51 | 1010.1 |
| 20260510141846 | 69 | 22 | 5.0 | 7.0 | 0.00 | 0.00 | 0.00 | 50 | 1010.2 |
| 20260510141326 | 70 | 42 | 4.0 | 6.0 | 0.00 | 0.00 | 0.00 | 50 | 1010.3 |
| 20260510140829 | 70 | 10 | 4.0 | 6.0 | 0.00 | 0.00 | 0.00 | 50 | 1010.3 |
| 20260510140332 | 70 | 53 | 3.0 | 6.0 | 0.00 | 0.00 | 0.00 | 50 | 1010.4 |
| 20260510135815 | 70 | 40 | 3.0 | 6.0 | 0.00 | 0.00 | 0.00 | 52 | 1010.4 |
| 20260510135317 | 69 | 13 | 3.0 | 7.0 | 0.00 | 0.00 | 0.00 | 51 | 1010.5 |
| 20260510134820 | 69 | 17 | 4.0 | 7.0 | 0.00 | 0.00 | 0.00 | 54 | 1010.6 |
| 20260510134321 | 69 | 46 | 6.0 | 7.0 | 0.00 | 0.00 | 0.00 | 52 | 1010.6 |
| 20260510133824 | 69 | 59 | 4.0 | 6.0 | 0.00 | 0.00 | 0.00 | 53 | 1010.7 |
| 20260510133342 | 69 | 50 | 4.0 | 7.0 | 0.00 | 0.00 | 0.00 | 51 | 1010.7 |
| 20260510132823 | 69 | 61 | 5.0 | 7.0 | 0.00 | 0.00 | 0.00 | 53 | 1010.8 |
| 20260510132327 | 69 | 61 | 3.0 | 6.0 | 0.00 | 0.00 | 0.00 | 54 | 1010.8 |
| 20260510131316 | 69 | 107 | 3.0 | 7.0 | 0.00 | 0.00 | 0.00 | 54 | 1011.0 |
| 20260510130816 | 69 | 77 | 3.0 | 6.0 | 0.00 | 0.00 | 0.00 | 53 | 1011.0 |
| 20260510130319 | 68 | 46 | 3.0 | 5.0 | 0.00 | 0.00 | 0.00 | 56 | 1011.0 |
| 20260510125813 | 68 | 54 | 3.0 | 7.0 | 0.00 | 0.00 | 0.00 | 55 | 1011.2 |
| 20260510125316 | 68 | 59 | 4.0 | 7.0 | 0.00 | 0.00 | 0.00 | 55 | 1011.1 |
| 20260510124819 | 68 | 56 | 4.0 | 7.0 | 0.00 | 0.00 | 0.00 | 54 | 1011.2 |
| 20260510124321 | 68 | 77 | 4.0 | 7.0 | 0.00 | 0.00 | 0.00 | 55 | 1011.2 |
| 20260510123824 | 68 | 50 | 4.0 | 7.0 | 0.00 | 0.00 | 0.00 | 54 | 1011.3 |
| 20260510123322 | 69 | 51 | 3.0 | 7.0 | 0.00 | 0.00 | 0.00 | 54 | 1011.4 |
| 20260510122825 | 69 | 61 | 5.0 | 7.0 | 0.00 | 0.00 | 0.00 | 52 | 1011.5 |
| 20260510122345 | 69 | 28 | 3.0 | 8.0 | 0.00 | 0.00 | 0.00 | 54 | 1011.6 |
| 20260510121827 | 68 | 46 | 4.0 | 8.0 | 0.00 | 0.00 | 0.00 | 55 | 1011.6 |
| 20260510121328 | 68 | 49 | 4.0 | 9.0 | 0.00 | 0.00 | 0.00 | 55 | 1011.7 |
| 20260510120850 | 68 | 47 | 5.0 | 9.0 | 0.00 | 0.00 | 0.00 | 56 | 1011.7 |
| 20260510120330 | 68 | 349 | 5.0 | 8.0 | 0.00 | 0.00 | 0.00 | 55 | 1011.7 |
| 20260510115322 | 68 | 39 | 4.0 | 7.0 | 0.00 | 0.00 | 0.00 | 55 | 1011.9 |
| 20260510114822 | 69 | 45 | 4.0 | 7.0 | 0.00 | 0.00 | 0.00 | 54 | 1011.8 |
| 20260510114323 | 68 | 42 | 5.0 | 7.0 | 0.00 | 0.00 | 0.00 | 55 | 1012.0 |
| 20260510113824 | 69 | 58 | 5.0 | 7.0 | 0.00 | 0.00 | 0.00 | 54 | 1012.1 |
| 20260510113344 | 69 | 42 | 3.0 | 6.0 | 0.00 | 0.00 | 0.00 | 54 | 1012.2 |
| 20260510112823 | 69 | 54 | 3.0 | 5.0 | 0.00 | 0.00 | 0.00 | 56 | 1012.2 |
| 20260510112324 | 68 | 51 | 2.0 | 6.0 | 0.00 | 0.00 | 0.00 | 58 | 1012.3 |
| 20260510111825 | 67 | 58 | 3.0 | 6.0 | 0.00 | 0.00 | 0.00 | 57 | 1012.3 |
| 20260510111328 | 67 | 76 | 2.0 | 5.0 | 0.00 | 0.00 | 0.00 | 58 | 1012.4 |
| 20260510110832 | 67 | 13 | 2.0 | 5.0 | 0.00 | 0.00 | 0.00 | 56 | 1012.4 |
| 20260510110316 | 67 | 36 | 3.0 | 8.0 | 0.00 | 0.00 | 0.00 | 57 | 1012.4 |
| 20260510105820 | 66 | 79 | 3.0 | 8.0 | 0.00 | 0.00 | 0.00 | 57 | 1012.5 |
| 20260510105320 | 66 | 53 | 5.0 | 11.0 | 0.00 | 0.00 | 0.00 | 57 | 1012.6 |
| 20260510104820 | 67 | 64 | 7.0 | 11.0 | 0.00 | 0.00 | 0.00 | 56 | 1012.5 |
| 20260510104340 | 67 | 60 | 2.0 | 8.0 | 0.00 | 0.00 | 0.00 | 58 | 1012.6 |
| 20260510103907 | 66 | 42 | 3.0 | 9.0 | 0.00 | 0.00 | 0.00 | 58 | 1012.8 |
| 20260510103323 | 66 | 53 | 7.0 | 9.0 | 0.00 | 0.00 | 0.00 | 58 | 1012.8 |
| 20260510102824 | 66 | 48 | 6.0 | 8.0 | 0.00 | 0.00 | 0.00 | 58 | 1012.8 |
| 20260510102324 | 67 | 68 | 4.0 | 7.0 | 0.00 | 0.00 | 0.00 | 58 | 1012.9 |
| 20260510101826 | 66 | 66 | 4.0 | 7.0 | 0.00 | 0.00 | 0.00 | 58 | 1012.9 |
| 20260510101329 | 66 | 60 | 4.0 | 7.0 | 0.00 | 0.00 | 0.00 | 59 | 1013.1 |
| 20260510100832 | 66 | 23 | 4.0 | 8.0 | 0.00 | 0.00 | 0.00 | 61 | 1013.1 |
| 20260510100314 | 65 | 61 | 4.0 | 8.0 | 0.00 | 0.00 | 0.00 | 59 | 1013.0 |
| 20260510095817 | 65 | 82 | 4.0 | 8.0 | 0.00 | 0.00 | 0.00 | 58 | 1013.1 |
| 20260510095320 | 65 | 39 | 6.0 | 9.0 | 0.00 | 0.00 | 0.00 | 58 | 1013.1 |
| 20260510094822 | 66 | 84 | 6.0 | 9.0 | 0.00 | 0.00 | 0.00 | 58 | 1013.2 |
| 20260510094324 | 67 | 137 | 1.0 | 6.0 | 0.00 | 0.00 | 0.00 | 57 | 1013.3 |
| 20260510093825 | 66 | 120 | 1.0 | 7.0 | 0.00 | 0.00 | 0.00 | 60 | 1013.4 |
| 20260510093349 | 65 | 28 | 3.0 | 7.0 | 0.00 | 0.00 | 0.00 | 61 | 1013.5 |
| 20260510092851 | 64 | 28 | 2.0 | 6.0 | 0.00 | 0.00 | 0.00 | 62 | 1013.5 |
| 20260510092331 | 64 | 57 | 3.0 | 6.0 | 0.00 | 0.00 | 0.00 | 61 | 1013.6 |
| 20260510091824 | 64 | 51 | 4.0 | 8.0 | 0.00 | 0.00 | 0.00 | 60 | 1013.7 |
| 20260510091347 | 64 | 45 | 5.0 | 8.0 | 0.00 | 0.00 | 0.00 | 61 | 1013.6 |
| 20260510090827 | 65 | 48 | 5.0 | 6.0 | 0.00 | 0.00 | 0.00 | 60 | 1013.7 |
| 20260510090349 | 65 | 103 | 3.0 | 7.0 | 0.00 | 0.00 | 0.00 | 61 | 1013.8 |
| 20260510085831 | 63 | 75 | 3.0 | 7.0 | 0.00 | 0.00 | 0.00 | 64 | 1013.7 |
| 20260510085353 | 63 | 35 | 5.0 | 6.0 | 0.00 | 0.00 | 0.00 | 64 | 1013.8 |
| 20260510084813 | 63 | 64 | 3.0 | 7.0 | 0.00 | 0.00 | 0.00 | 64 | 1013.9 |
| 20260510084313 | 62 | 46 | 5.0 | 7.0 | 0.00 | 0.00 | 0.00 | 63 | 1014.0 |
| 20260510083814 | 62 | 60 | 3.0 | 7.0 | 0.00 | 0.00 | 0.00 | 63 | 1014.1 |
| 20260510083315 | 62 | 42 | 5.0 | 7.0 | 0.00 | 0.00 | 0.00 | 62 | 1014.2 |
| 20260510082815 | 63 | 38 | 2.0 | 6.0 | 0.00 | 0.00 | 0.00 | 62 | 1014.1 |
| 20260510082318 | 62 | 96 | 3.0 | 7.0 | 0.00 | 0.00 | 0.00 | 63 | 1014.2 |
| 20260510081842 | 62 | 44 | 5.0 | 7.0 | 0.00 | 0.00 | 0.00 | 64 | 1014.2 |
| 20260510081319 | 63 | 53 | 2.0 | 6.0 | 0.00 | 0.00 | 0.00 | 64 | 1014.3 |
| 20260510080816 | 62 | 51 | 3.0 | 6.0 | 0.00 | 0.00 | 0.00 | 64 | 1014.3 |
| 20260510080316 | 61 | 68 | 2.0 | 7.0 | 0.00 | 0.00 | 0.00 | 65 | 1014.4 |
| 20260510075812 | 61 | 195 | 4.0 | 7.0 | 0.00 | 0.00 | 0.00 | 64 | 1014.5 |
| 20260510075313 | 61 | 148 | 3.0 | 7.0 | 0.00 | 0.00 | 0.00 | 64 | 1014.4 |
| 20260510074816 | 61 | 122 | 4.0 | 7.0 | 0.00 | 0.00 | 0.00 | 64 | 1014.4 |
| 20260510074318 | 61 | 127 | 3.0 | 7.0 | 0.00 | 0.00 | 0.00 | 65 | 1014.4 |
| 20260510073820 | 60 | 172 | 1.0 | 8.0 | 0.00 | 0.00 | 0.00 | 66 | 1014.4 |
| 20260510073322 | 60 | 141 | 1.0 | 7.0 | 0.00 | 0.00 | 0.00 | 65 | 1014.5 |
| 20260510072825 | 60 | 218 | 4.0 | 7.0 | 0.00 | 0.00 | 0.00 | 65 | 1014.6 |
| 20260510072326 | 60 | 136 | 3.0 | 9.0 | 0.00 | 0.00 | 0.00 | 66 | 1014.6 |
| 20260510071825 | 60 | 144 | 2.0 | 5.0 | 0.00 | 0.00 | 0.00 | 68 | 1014.7 |
| 20260510071324 | 60 | 143 | 1.0 | 4.0 | 0.00 | 0.00 | 0.00 | 69 | 1014.7 |
| 20260510070824 | 59 | 39 | 1.0 | 6.0 | 0.00 | 0.00 | 0.00 | 70 | 1014.8 |
| 20260510070324 | 58 | 153 | 2.0 | 7.0 | 0.00 | 0.00 | 0.00 | 69 | 1014.8 |
| 20260510065823 | 58 | 139 | 3.0 | 7.0 | 0.00 | 0.00 | 0.00 | 69 | 1014.9 |
| 20260510065323 | 58 | 115 | 3.0 | 7.0 | 0.00 | 0.00 | 0.00 | 70 | 1014.9 |
| 20260510064823 | 57 | 103 | 2.0 | 7.0 | 0.00 | 0.00 | 0.00 | 71 | 1014.9 |
| 20260510064324 | 57 | 134 | 3.0 | 8.0 | 0.00 | 0.00 | 0.00 | 71 | 1014.9 |
| 20260510063826 | 56 | 104 | 5.0 | 8.0 | 0.00 | 0.00 | 0.00 | 71 | 1014.9 |
| 20260510063329 | 56 | 150 | 3.0 | 6.0 | 0.00 | 0.00 | 0.00 | 74 | 1015.0 |
| 20260510062851 | 56 | 93 | 2.0 | 7.0 | 0.00 | 0.00 | 0.00 | 74 | 1014.9 |
| 20260510062353 | 55 | 181 | 2.0 | 7.0 | 0.00 | 0.00 | 0.00 | 75 | 1015.0 |
| 20260510061814 | 54 | 120 | 1.0 | 7.0 | 0.00 | 0.00 | 0.00 | 76 | 1015.2 |
| 20260510061317 | 54 | 135 | 3.0 | 7.0 | 0.00 | 0.00 | 0.00 | 76 | 1015.2 |
| 20260510060817 | 53 | 107 | 1.0 | 7.0 | 0.00 | 0.00 | 0.00 | 80 | 1015.1 |
| 20260510060318 | 53 | 138 | 2.0 | 5.0 | 0.00 | 0.00 | 0.00 | 80 | 1015.1 |
| 20260510055819 | 53 | 151 | 3.0 | 5.0 | 0.00 | 0.00 | 0.00 | 81 | 1015.2 |
| 20260510055319 | 52 | 93 | 2.0 | 4.0 | 0.00 | 0.00 | 0.00 | 82 | 1015.2 |
| 20260510054820 | 52 | 141 | 1.0 | 6.0 | 0.00 | 0.00 | 0.00 | 84 | 1015.3 |
| 20260510054319 | 51 | 118 | 2.0 | 7.0 | 0.00 | 0.00 | 0.00 | 84 | 1015.4 |
| 20260510053820 | 50 | 137 | 5.0 | 7.0 | 0.00 | 0.00 | 0.00 | 84 | 1015.3 |
| 20260510053321 | 50 | 102 | 2.0 | 5.0 | 0.00 | 0.00 | 0.00 | 85 | 1015.3 |
| 20260510052842 | 50 | 117 | 1.0 | 5.0 | 0.00 | 0.00 | 0.00 | 85 | 1015.3 |
| 20260510052341 | 50 | 113 | 2.0 | 4.0 | 0.00 | 0.00 | 0.00 | 85 | 1015.5 |
| 20260510051821 | 50 | 117 | 0.0 | 1.0 | 0.00 | 0.00 | 0.00 | 85 | 1015.5 |
| 20260510051322 | 49 | 113 | 0.0 | 1.0 | 0.00 | 0.00 | 0.00 | 87 | 1015.5 |
| 20260510050821 | 48 | 120 | 0.0 | 2.0 | 0.00 | 0.00 | 0.00 | 87 | 1015.5 |
| 20260510050324 | 48 | 134 | 0.0 | 2.0 | 0.00 | 0.00 | 0.00 | 88 | 1015.5 |
| 20260510045325 | 47 | 125 | 0.0 | 1.0 | 0.00 | 0.00 | 0.00 | 89 | 1015.5 |
| 20260510044824 | 47 | 131 | 0.0 | 1.0 | 0.00 | 0.00 | 0.00 | 89 | 1015.6 |
| 20260510044324 | 47 | 131 | 0.0 | 1.0 | 0.00 | 0.00 | 0.00 | 90 | 1015.7 |
| 20260510043824 | 46 | 131 | 0.0 | 2.0 | 0.00 | 0.00 | 0.00 | 91 | 1015.6 |
| 20260510043345 | 46 | 131 | 1.0 | 2.0 | 0.00 | 0.00 | 0.00 | 91 | 1015.6 |
| 20260510042825 | 46 | 115 | 0.0 | 2.0 | 0.00 | 0.00 | 0.00 | 92 | 1015.6 |
| 20260510042326 | 45 | 115 | 0.0 | 2.0 | 0.00 | 0.00 | 0.00 | 92 | 1015.6 |
| 20260510041828 | 45 | 122 | 0.0 | 1.0 | 0.00 | 0.00 | 0.00 | 93 | 1015.5 |
| 20260510041330 | 45 | 122 | 0.0 | 1.0 | 0.00 | 0.00 | 0.00 | 93 | 1015.5 |
| 20260510040831 | 45 | 122 | 0.0 | 1.0 | 0.00 | 0.00 | 0.00 | 94 | 1015.6 |
| 20260510040350 | 45 | 122 | 0.0 | 0.0 | 0.00 | 0.00 | 0.00 | 94 | 1015.5 |
| 20260510035852 | 44 | 122 | 0.0 | 0.0 | 0.00 | 0.00 | 0.00 | 94 | 1015.5 |
| 20260510035314 | 44 | 122 | 0.0 | 0.0 | 0.00 | 0.00 | 0.00 | 94 | 1015.5 |
| 20260510034816 | 43 | 122 | 0.0 | 0.0 | 0.00 | 0.00 | 0.00 | 94 | 1015.5 |
| 20260510034316 | 43 | 122 | 0.0 | 0.0 | 0.00 | 0.00 | 0.00 | 94 | 1015.5 |
| 20260510033818 | 43 | 122 | 0.0 | 0.0 | 0.00 | 0.00 | 0.00 | 94 | 1015.5 |
| 20260510033321 | 42 | 122 | 0.0 | 0.0 | 0.00 | 0.00 | 0.00 | 94 | 1015.5 |
| 20260510032822 | 42 | 122 | 0.0 | 0.0 | 0.00 | 0.00 | 0.00 | 93 | 1015.5 |
| 20260510032325 | 43 | 122 | 0.0 | 0.0 | 0.00 | 0.00 | 0.00 | 94 | 1015.5 |
| 20260510031827 | 43 | 122 | 0.0 | 1.0 | 0.00 | 0.00 | 0.00 | 94 | 1015.5 |
| 20260510031330 | 43 | 122 | 0.0 | 1.0 | 0.00 | 0.00 | 0.00 | 94 | 1015.6 |
| 20260510030831 | 43 | 122 | 0.0 | 1.0 | 0.00 | 0.00 | 0.00 | 94 | 1015.6 |
| 20260510030313 | 42 | 122 | 0.0 | 1.0 | 0.00 | 0.00 | 0.00 | 93 | 1015.7 |
| 20260510025815 | 42 | 122 | 0.0 | 1.0 | 0.00 | 0.00 | 0.00 | 93 | 1015.8 |
| 20260510025317 | 43 | 122 | 0.0 | 1.0 | 0.00 | 0.00 | 0.00 | 93 | 1015.9 |
| 20260510024839 | 42 | 122 | 0.0 | 1.0 | 0.00 | 0.00 | 0.00 | 93 | 1016.0 |
| 20260510024340 | 43 | 122 | 0.0 | 0.0 | 0.00 | 0.00 | 0.00 | 93 | 1016.0 |
| 20260510023820 | 43 | 122 | 0.0 | 1.0 | 0.00 | 0.00 | 0.00 | 92 | 1016.1 |
| 20260510023323 | 43 | 122 | 0.0 | 1.0 | 0.00 | 0.00 | 0.00 | 92 | 1016.2 |
| 20260510022823 | 43 | 122 | 1.0 | 1.0 | 0.00 | 0.00 | 0.00 | 92 | 1016.3 |
| 20260510022325 | 44 | 121 | 0.0 | 0.0 | 0.00 | 0.00 | 0.00 | 92 | 1016.3 |
| 20260510021826 | 44 | 121 | 0.0 | 0.0 | 0.00 | 0.00 | 0.00 | 92 | 1016.2 |
| 20260510021349 | 44 | 121 | 0.0 | 1.0 | 0.00 | 0.00 | 0.00 | 93 | 1016.2 |
| 20260510020829 | 44 | 122 | 0.0 | 1.0 | 0.00 | 0.00 | 0.00 | 92 | 1016.2 |
| 20260510020351 | 44 | 122 | 0.0 | 0.0 | 0.00 | 0.00 | 0.00 | 92 | 1016.3 |
| 20260510015832 | 44 | 121 | 0.0 | 1.0 | 0.00 | 0.00 | 0.00 | 92 | 1016.3 |
| 20260510015315 | 44 | 122 | 0.0 | 1.0 | 0.00 | 0.00 | 0.00 | 91 | 1016.4 |
| 20260510014830 | 45 | 122 | 0.0 | 1.0 | 0.00 | 0.00 | 0.00 | 91 | 1016.5 |
| 20260510014331 | 45 | 122 | 0.0 | 1.0 | 0.00 | 0.00 | 0.00 | 92 | 1016.5 |
| 20260510013831 | 45 | 122 | 0.0 | 3.0 | 0.00 | 0.00 | 0.00 | 92 | 1016.6 |
| 20260510013332 | 45 | 122 | 1.0 | 3.0 | 0.00 | 0.00 | 0.00 | 92 | 1016.6 |
| 20260510012332 | 45 | 101 | 0.0 | 0.0 | 0.00 | 0.00 | 0.00 | 92 | 1016.7 |
| 20260510011813 | 45 | 101 | 0.0 | 0.0 | 0.00 | 0.00 | 0.00 | 92 | 1016.8 |
| 20260510011316 | 45 | 101 | 0.0 | 0.0 | 0.00 | 0.00 | 0.00 | 92 | 1016.9 |
| 20260510010819 | 45 | 101 | 0.0 | 0.0 | 0.00 | 0.00 | 0.00 | 92 | 1017.0 |
| 20260510010342 | 45 | 101 | 0.0 | 0.0 | 0.00 | 0.00 | 0.00 | 92 | 1017.0 |
| 20260510005823 | 45 | 101 | 0.0 | 0.0 | 0.00 | 0.00 | 0.00 | 92 | 1017.0 |
| 20260510005346 | 45 | 101 | 0.0 | 0.0 | 0.00 | 0.00 | 0.00 | 91 | 1017.1 |
| 20260510004847 | 45 | 101 | 0.0 | 0.0 | 0.00 | 0.00 | 0.00 | 91 | 1017.2 |
| 20260510004329 | 45 | 101 | 0.0 | 0.0 | 0.00 | 0.00 | 0.00 | 92 | 1017.2 |
| 20260510003812 | 45 | 101 | 0.0 | 0.0 | 0.00 | 0.00 | 0.00 | 91 | 1017.2 |
| 20260510003314 | 45 | 101 | 0.0 | 0.0 | 0.00 | 0.00 | 0.00 | 92 | 1017.2 |
| 20260510002837 | 45 | 101 | 0.0 | 0.0 | 0.00 | 0.00 | 0.00 | 91 | 1017.2 |
| 20260510002320 | 45 | 101 | 0.0 | 0.0 | 0.00 | 0.00 | 0.00 | 91 | 1017.3 |
| 20260510001821 | 45 | 101 | 0.0 | 0.0 | 0.00 | 0.00 | 0.00 | 90 | 1017.3 |
| 20260510001322 | 45 | 101 | 0.0 | 0.0 | 0.00 | 0.00 | 0.00 | 91 | 1017.4 |
| 20260510000844 | 45 | 101 | 0.0 | 0.0 | 0.00 | 0.00 | 0.00 | 90 | 1017.5 |
| 20260510000344 | 45 | 101 | 0.0 | 0.0 | 0.00 | 0.00 | 0.00 | 90 | 1017.5 |
| 20260509235823 | 45 | 101 | 0.0 | 0.0 | 0.00 | 0.00 | 0.00 | 89 | 1017.5 |
| 20260509235323 | 46 | 101 | 0.0 | 0.0 | 0.00 | 0.00 | 0.00 | 89 | 1017.6 |
| 20260509234824 | 46 | 101 | 0.0 | 0.0 | 0.00 | 0.00 | 0.00 | 89 | 1017.6 |
| 20260509234326 | 46 | 101 | 0.0 | 0.0 | 0.00 | 0.00 | 0.00 | 90 | 1017.6 |
| 20260509233828 | 46 | 101 | 0.0 | 0.0 | 0.00 | 0.00 | 0.00 | 89 | 1017.7 |
| 20260509233323 | 46 | 101 | 0.0 | 0.0 | 0.00 | 0.00 | 0.00 | 90 | 1017.7 |
| 20260509232823 | 46 | 101 | 0.0 | 0.0 | 0.00 | 0.00 | 0.00 | 89 | 1017.8 |
| 20260509232324 | 46 | 101 | 0.0 | 0.0 | 0.00 | 0.00 | 0.00 | 89 | 1017.9 |
| 20260509231844 | 47 | 101 | 0.0 | 0.0 | 0.00 | 0.00 | 0.00 | 88 | 1018.1 |
| 20260509231324 | 47 | 101 | 0.0 | 0.0 | 0.00 | 0.00 | 0.00 | 88 | 1018.0 |
| 20260509230824 | 47 | 101 | 0.0 | 0.0 | 0.00 | 0.00 | 0.00 | 88 | 1018.1 |
| 20260509230324 | 47 | 101 | 0.0 | 0.0 | 0.00 | 0.00 | 0.00 | 88 | 1018.0 |
| 20260509225826 | 48 | 101 | 0.0 | 0.0 | 0.00 | 0.00 | 0.00 | 88 | 1018.1 |
| 20260509225347 | 47 | 101 | 0.0 | 0.0 | 0.00 | 0.00 | 0.00 | 89 | 1018.1 |
| 20260509224825 | 47 | 122 | 0.0 | 0.0 | 0.00 | 0.00 | 0.00 | 88 | 1018.1 |
| 20260509224325 | 47 | 122 | 0.0 | 0.0 | 0.00 | 0.00 | 0.00 | 89 | 1018.2 |
| 20260509223825 | 47 | 122 | 0.0 | 0.0 | 0.00 | 0.00 | 0.00 | 88 | 1018.2 |
| 20260509223325 | 47 | 122 | 0.0 | 0.0 | 0.00 | 0.00 | 0.00 | 87 | 1018.1 |
| 20260509222826 | 48 | 122 | 0.0 | 0.0 | 0.00 | 0.00 | 0.00 | 87 | 1018.2 |
| 20260509222328 | 48 | 122 | 0.0 | 0.0 | 0.00 | 0.00 | 0.00 | 88 | 1018.4 |
| 20260509221831 | 48 | 122 | 0.0 | 0.0 | 0.00 | 0.00 | 0.00 | 88 | 1018.4 |
| 20260509221334 | 48 | 122 | 0.0 | 0.0 | 0.00 | 0.00 | 0.00 | 88 | 1018.3 |
| 20260509220835 | 48 | 122 | 0.0 | 1.0 | 0.00 | 0.00 | 0.00 | 88 | 1018.3 |
| 20260509220358 | 47 | 122 | 0.0 | 1.0 | 0.00 | 0.00 | 0.00 | 88 | 1018.2 |
| 20260509215813 | 48 | 122 | 0.0 | 0.0 | 0.00 | 0.00 | 0.00 | 87 | 1018.2 |
| 20260509215318 | 48 | 122 | 0.0 | 0.0 | 0.00 | 0.00 | 0.00 | 87 | 1018.1 |
| 20260509214822 | 48 | 122 | 0.0 | 0.0 | 0.00 | 0.00 | 0.00 | 87 | 1018.1 |
| 20260509214325 | 48 | 122 | 0.0 | 0.0 | 0.00 | 0.00 | 0.00 | 86 | 1018.1 |
| 20260509213826 | 49 | 122 | 0.0 | 0.0 | 0.00 | 0.00 | 0.00 | 86 | 1018.2 |
| 20260509213346 | 49 | 122 | 0.0 | 1.0 | 0.00 | 0.00 | 0.00 | 85 | 1018.3 |
| 20260509212826 | 49 | 122 | 0.0 | 1.0 | 0.00 | 0.00 | 0.00 | 85 | 1018.3 |
| 20260509212326 | 50 | 122 | 0.0 | 1.0 | 0.00 | 0.00 | 0.00 | 85 | 1018.3 |
| 20260509211829 | 50 | 122 | 0.0 | 1.0 | 0.00 | 0.00 | 0.00 | 85 | 1018.3 |
| 20260509211314 | 50 | 122 | 0.0 | 1.0 | 0.00 | 0.00 | 0.00 | 84 | 1018.3 |
| 20260509210323 | 50 | 122 | 0.0 | 1.0 | 0.00 | 0.00 | 0.00 | 84 | 1018.3 |
| 20260509205826 | 50 | 122 | 0.0 | 1.0 | 0.00 | 0.00 | 0.00 | 83 | 1018.3 |
| 20260509205348 | 51 | 122 | 0.0 | 2.0 | 0.00 | 0.00 | 0.00 | 83 | 1018.4 |
| 20260509204828 | 50 | 126 | 1.0 | 2.0 | 0.00 | 0.00 | 0.00 | 84 | 1018.4 |
| 20260509204331 | 50 | 142 | 0.0 | 0.0 | 0.00 | 0.00 | 0.00 | 84 | 1018.5 |
| 20260509203831 | 50 | 142 | 0.0 | 0.0 | 0.00 | 0.00 | 0.00 | 84 | 1018.5 |
| 20260509203314 | 50 | 142 | 0.0 | 0.0 | 0.00 | 0.00 | 0.00 | 83 | 1018.5 |
| 20260509202816 | 51 | 142 | 0.0 | 0.0 | 0.00 | 0.00 | 0.00 | 83 | 1018.5 |
| 20260509202318 | 51 | 142 | 0.0 | 0.0 | 0.00 | 0.00 | 0.00 | 82 | 1018.5 |
| 20260509201821 | 51 | 142 | 0.0 | 0.0 | 0.00 | 0.00 | 0.00 | 80 | 1018.5 |
| 20260509201323 | 52 | 142 | 0.0 | 0.0 | 0.00 | 0.00 | 0.00 | 79 | 1018.4 |
| 20260509200825 | 52 | 142 | 0.0 | 0.0 | 0.00 | 0.00 | 0.00 | 79 | 1018.4 |
| 20260509200329 | 52 | 142 | 0.0 | 0.0 | 0.00 | 0.00 | 0.00 | 78 | 1018.4 |
| 20260509195853 | 53 | 142 | 0.0 | 0.0 | 0.00 | 0.00 | 0.00 | 77 | 1018.4 |
| 20260509195313 | 53 | 142 | 0.0 | 0.0 | 0.00 | 0.00 | 0.00 | 77 | 1018.4 |
| 20260509194816 | 54 | 142 | 0.0 | 0.0 | 0.00 | 0.00 | 0.00 | 76 | 1018.4 |
| 20260509194320 | 54 | 142 | 0.0 | 0.0 | 0.00 | 0.00 | 0.00 | 76 | 1018.4 |
| 20260509193822 | 54 | 142 | 0.0 | 0.0 | 0.00 | 0.00 | 0.00 | 76 | 1018.4 |
| 20260509193331 | 54 | 142 | 0.0 | 1.0 | 0.00 | 0.00 | 0.00 | 75 | 1018.4 |
| 20260509192832 | 55 | 142 | 0.0 | 1.0 | 0.00 | 0.00 | 0.00 | 75 | 1018.4 |
| 20260509192313 | 55 | 135 | 0.0 | 1.0 | 0.00 | 0.00 | 0.00 | 75 | 1018.3 |
| 20260509191815 | 55 | 134 | 0.0 | 1.0 | 0.00 | 0.00 | 0.00 | 74 | 1018.3 |
| 20260509191318 | 55 | 136 | 0.0 | 1.0 | 0.00 | 0.00 | 0.00 | 73 | 1018.2 |
| 20260509190819 | 56 | 136 | 0.0 | 1.0 | 0.00 | 0.00 | 0.00 | 72 | 1018.2 |
| 20260509190320 | 56 | 136 | 0.0 | 1.0 | 0.00 | 0.00 | 0.00 | 71 | 1018.2 |
| 20260509185842 | 56 | 136 | 0.0 | 1.0 | 0.00 | 0.00 | 0.00 | 71 | 1018.1 |
| 20260509185322 | 57 | 136 | 0.0 | 2.0 | 0.00 | 0.00 | 0.00 | 70 | 1018.1 |
| 20260509184827 | 57 | 136 | 0.0 | 2.0 | 0.00 | 0.00 | 0.00 | 69 | 1018.0 |
| 20260509184350 | 57 | 136 | 0.0 | 3.0 | 0.00 | 0.00 | 0.00 | 68 | 1018.0 |
| 20260509183814 | 58 | 139 | 1.0 | 3.0 | 0.00 | 0.00 | 0.00 | 68 | 1018.0 |
| 20260509183346 | 58 | 124 | 0.0 | 2.0 | 0.00 | 0.00 | 0.00 | 67 | 1018.0 |
| 20260509182830 | 58 | 133 | 1.0 | 4.0 | 0.00 | 0.00 | 0.00 | 67 | 1018.0 |
| 20260509182332 | 59 | 149 | 1.0 | 4.0 | 0.00 | 0.00 | 0.00 | 66 | 1018.0 |
| 20260509181815 | 59 | 141 | 2.0 | 3.0 | 0.00 | 0.00 | 0.00 | 66 | 1018.1 |
| 20260509181338 | 59 | 129 | 2.0 | 3.0 | 0.00 | 0.00 | 0.00 | 66 | 1018.0 |
| 20260509180818 | 59 | 122 | 1.0 | 4.0 | 0.00 | 0.00 | 0.00 | 66 | 1018.1 |
| 20260509180318 | 59 | 122 | 2.0 | 5.0 | 0.00 | 0.00 | 0.00 | 65 | 1018.1 |
| 20260509175817 | 59 | 144 | 3.0 | 5.0 | 0.00 | 0.00 | 0.00 | 65 | 1018.1 |
| 20260509175321 | 60 | 139 | 2.0 | 4.0 | 0.00 | 0.00 | 0.00 | 66 | 1018.2 |
| 20260509174825 | 60 | 127 | 2.0 | 3.0 | 0.00 | 0.00 | 0.00 | 65 | 1018.2 |
| 20260509174325 | 60 | 137 | 1.0 | 3.0 | 0.00 | 0.00 | 0.00 | 65 | 1018.2 |